contact:dominique.lefevre@mio.osupytheas.fr, maurice.libes@osupytheas.fr, didier.mallarino@osupytheas.fr
Project:EMSO http://www.emso-fr.org/EMSO-France
Depth: 2436.0 m
Title:EMSO Ligure Ouest : Data MII capteur MICROCAT
DateTime_Computer,Latitude,Longitude,Temperature,Conductivity,Pressure,DateTime_Instrument
DateTime_Computer,Latitude,Longitude,degC,S m-1,dbar,DateTime_Instrument
2023-02-13T00:02:18Z,42.805,6.029,13.3087,4.60134,2470.553,2023-2-13T02:04:40Z
2023-02-13T00:05:21Z,42.805,6.029,13.3086,4.60187,2470.591,2023-2-13T02:07:44Z
2023-02-13T00:08:24Z,42.805,6.029,13.3073,4.60180,2470.577,2023-2-13T02:10:47Z
2023-02-13T00:11:27Z,42.805,6.029,13.3082,4.60115,2470.553,2023-2-13T02:13:50Z
2023-02-13T00:14:30Z,42.805,6.029,13.3039,4.60149,2470.553,2023-2-13T02:16:53Z
2023-02-13T00:17:33Z,42.805,6.029,13.3045,4.60135,2470.6,2023-2-13T02:19:56Z
2023-02-13T00:20:36Z,42.805,6.029,13.3054,4.60117,2470.614,2023-2-13T02:22:59Z
2023-02-13T00:23:39Z,42.805,6.029,13.3067,4.60145,2470.553,2023-2-13T02:26:02Z
2023-02-13T00:26:43Z,42.805,6.029,13.3048,4.60152,2470.577,2023-2-13T02:29:05Z
2023-02-13T00:29:46Z,42.805,6.029,13.3071,4.60161,2470.586,2023-2-13T02:32:08Z
2023-02-13T00:32:49Z,42.805,6.029,13.3076,4.60210,2470.567,2023-2-13T02:35:11Z
2023-02-13T00:35:52Z,42.805,6.029,13.3037,4.60174,2470.591,2023-2-13T02:38:14Z
2023-02-13T00:38:55Z,42.805,6.029,13.3081,4.60135,2470.591,2023-2-13T02:41:17Z
2023-02-13T00:41:58Z,42.805,6.029,13.3072,4.60179,2470.614,2023-2-13T02:44:21Z
2023-02-13T00:45:01Z,42.805,6.029,13.3091,4.60158,2470.553,2023-2-13T02:47:24Z
2023-02-13T00:48:04Z,42.805,6.029,13.3089,4.60189,2470.553,2023-2-13T02:50:27Z
2023-02-13T00:51:07Z,42.805,6.029,13.3078,4.60173,2470.6,2023-2-13T02:53:30Z
2023-02-13T00:54:10Z,42.805,6.029,13.3090,4.60200,2470.577,2023-2-13T02:56:33Z
2023-02-13T00:57:13Z,42.805,6.029,13.3066,4.60113,2470.567,2023-2-13T02:59:36Z
2023-02-13T01:00:16Z,42.805,6.029,13.3082,4.60158,2470.6,2023-2-13T03:02:39Z
2023-02-13T01:03:20Z,42.805,6.029,13.3095,4.60198,2470.637,2023-2-13T03:05:42Z
2023-02-13T01:06:23Z,42.805,6.029,13.3094,4.60138,2470.567,2023-2-13T03:08:45Z
2023-02-13T01:09:26Z,42.805,6.029,13.3089,4.60149,2470.591,2023-2-13T03:11:48Z
2023-02-13T01:12:29Z,42.805,6.029,13.3084,4.60114,2470.614,2023-2-13T03:14:51Z
2023-02-13T01:15:32Z,42.805,6.029,13.3086,4.60170,2470.614,2023-2-13T03:17:54Z
2023-02-13T01:18:35Z,42.805,6.029,13.3085,4.60144,2470.591,2023-2-13T03:20:58Z
2023-02-13T01:21:38Z,42.805,6.029,13.3074,4.60145,2470.6,2023-2-13T03:24:01Z
2023-02-13T01:24:41Z,42.805,6.029,13.3058,4.60133,2470.577,2023-2-13T03:27:04Z
2023-02-13T01:27:44Z,42.805,6.029,13.3076,4.60113,2470.6,2023-2-13T03:30:07Z
2023-02-13T01:30:47Z,42.805,6.029,13.3054,4.60137,2470.577,2023-2-13T03:33:10Z
2023-02-13T01:33:50Z,42.805,6.029,13.3082,4.60128,2470.567,2023-2-13T03:36:13Z
2023-02-13T01:36:53Z,42.805,6.029,13.3056,4.60135,2470.567,2023-2-13T03:39:16Z
2023-02-13T01:39:56Z,42.805,6.029,13.3037,4.60155,2470.577,2023-2-13T03:42:19Z
2023-02-13T01:43:00Z,42.805,6.029,13.3045,4.60153,2470.563,2023-2-13T03:45:22Z
2023-02-13T01:46:03Z,42.805,6.029,13.3057,4.60127,2470.553,2023-2-13T03:48:25Z
2023-02-13T01:49:06Z,42.805,6.029,13.3075,4.60123,2470.553,2023-2-13T03:51:28Z
2023-02-13T01:52:09Z,42.805,6.029,13.3039,4.60140,2470.577,2023-2-13T03:54:31Z
2023-02-13T01:55:12Z,42.805,6.029,13.3054,4.60130,2470.614,2023-2-13T03:57:34Z
2023-02-13T01:58:15Z,42.805,6.029,13.3040,4.60144,2470.614,2023-2-13T04:00:38Z
2023-02-13T02:01:18Z,42.805,6.029,13.3047,4.60122,2470.591,2023-2-13T04:03:41Z
2023-02-13T02:04:21Z,42.805,6.029,13.3036,4.60160,2470.567,2023-2-13T04:06:44Z
2023-02-13T02:07:24Z,42.805,6.029,13.3039,4.60165,2470.567,2023-2-13T04:09:47Z
2023-02-13T02:10:27Z,42.805,6.029,13.3047,4.60146,2470.591,2023-2-13T04:12:50Z
2023-02-13T02:13:30Z,42.805,6.029,13.3051,4.60160,2470.577,2023-2-13T04:15:53Z
2023-02-13T02:16:33Z,42.805,6.029,13.3029,4.60169,2470.577,2023-2-13T04:18:56Z
2023-02-13T02:19:37Z,42.805,6.029,13.3029,4.60163,2470.591,2023-2-13T04:21:59Z
2023-02-13T02:22:40Z,42.805,6.029,13.3041,4.60108,2470.553,2023-2-13T04:25:02Z
2023-02-13T02:25:43Z,42.805,6.029,13.3039,4.60148,2470.614,2023-2-13T04:28:05Z
2023-02-13T02:28:46Z,42.805,6.029,13.3048,4.60152,2470.591,2023-2-13T04:31:08Z
2023-02-13T02:31:49Z,42.805,6.029,13.3053,4.60153,2470.577,2023-2-13T04:34:11Z
2023-02-13T02:34:52Z,42.805,6.029,13.3069,4.60115,2470.577,2023-2-13T04:37:15Z
2023-02-13T02:37:55Z,42.805,6.029,13.3076,4.60158,2470.577,2023-2-13T04:40:18Z
2023-02-13T02:40:58Z,42.805,6.029,13.3078,4.60128,2470.577,2023-2-13T04:43:21Z
2023-02-13T02:44:01Z,42.805,6.029,13.3070,4.60131,2470.577,2023-2-13T04:46:24Z
2023-02-13T02:47:04Z,42.805,6.029,13.3054,4.60164,2470.614,2023-2-13T04:49:27Z
2023-02-13T02:50:07Z,42.805,6.029,13.3044,4.60141,2470.591,2023-2-13T04:52:30Z
2023-02-13T02:53:10Z,42.805,6.029,13.3040,4.60152,2470.567,2023-2-13T04:55:33Z
2023-02-13T02:56:13Z,42.805,6.029,13.3055,4.60143,2470.614,2023-2-13T04:58:36Z
2023-02-13T02:59:17Z,42.805,6.029,13.3039,4.60137,2470.553,2023-2-13T05:01:39Z
2023-02-13T03:02:20Z,42.805,6.029,13.3033,4.60127,2470.553,2023-2-13T05:04:42Z
2023-02-13T03:05:23Z,42.805,6.029,13.3040,4.60142,2470.591,2023-2-13T05:07:45Z
2023-02-13T03:08:26Z,42.805,6.029,13.3043,4.60124,2470.567,2023-2-13T05:10:48Z
2023-02-13T03:11:29Z,42.805,6.029,13.3034,4.60121,2470.577,2023-2-13T05:13:51Z
2023-02-13T03:14:32Z,42.805,6.029,13.3036,4.60130,2470.544,2023-2-13T05:16:55Z
2023-02-13T03:17:35Z,42.805,6.029,13.3042,4.60127,2470.591,2023-2-13T05:19:58Z
2023-02-13T03:20:38Z,42.805,6.029,13.3036,4.60132,2470.553,2023-2-13T05:23:01Z
2023-02-13T03:23:41Z,42.805,6.029,13.3031,4.60133,2470.553,2023-2-13T05:26:04Z
2023-02-13T03:26:44Z,42.805,6.029,13.3032,4.60131,2470.544,2023-2-13T05:29:07Z
2023-02-13T03:29:47Z,42.805,6.029,13.3039,4.60125,2470.553,2023-2-13T05:32:10Z
2023-02-13T03:32:50Z,42.805,6.029,13.3031,4.60124,2470.591,2023-2-13T05:35:13Z
2023-02-13T03:35:53Z,42.805,6.029,13.3028,4.60132,2470.553,2023-2-13T05:38:16Z
2023-02-13T03:38:57Z,42.805,6.029,13.3045,4.60120,2470.53,2023-2-13T05:41:19Z
2023-02-13T03:42:00Z,42.805,6.029,13.3031,4.60137,2470.53,2023-2-13T05:44:22Z
2023-02-13T03:45:03Z,42.805,6.029,13.3039,4.60114,2470.553,2023-2-13T05:47:25Z
2023-02-13T03:48:06Z,42.805,6.029,13.3034,4.60149,2470.577,2023-2-13T05:50:28Z
2023-02-13T03:51:09Z,42.805,6.029,13.3034,4.60117,2470.553,2023-2-13T05:53:32Z
2023-02-13T03:54:12Z,42.805,6.029,13.3037,4.60122,2470.53,2023-2-13T05:56:35Z
2023-02-13T03:57:15Z,42.805,6.029,13.3033,4.60144,2470.544,2023-2-13T05:59:38Z
2023-02-13T04:00:18Z,42.805,6.029,13.3051,4.60125,2470.553,2023-2-13T06:02:41Z
2023-02-13T04:03:21Z,42.805,6.029,13.3035,4.60119,2470.591,2023-2-13T06:05:44Z
2023-02-13T04:06:24Z,42.805,6.029,13.3034,4.60108,2470.53,2023-2-13T06:08:47Z
2023-02-13T04:09:27Z,42.805,6.029,13.3034,4.60123,2470.553,2023-2-13T06:11:50Z
2023-02-13T04:12:30Z,42.805,6.029,13.3030,4.60152,2470.553,2023-2-13T06:14:53Z
2023-02-13T04:15:34Z,42.805,6.029,13.3030,4.60131,2470.567,2023-2-13T06:17:56Z
2023-02-13T04:18:37Z,42.805,6.029,13.3034,4.60122,2470.544,2023-2-13T06:20:59Z
2023-02-13T04:21:40Z,42.805,6.029,13.3036,4.60110,2470.553,2023-2-13T06:24:02Z
2023-02-13T04:24:43Z,42.805,6.029,13.3032,4.60112,2470.567,2023-2-13T06:27:05Z
2023-02-13T04:27:46Z,42.805,6.029,13.3034,4.60136,2470.567,2023-2-13T06:30:09Z
2023-02-13T04:30:49Z,42.805,6.029,13.3032,4.60111,2470.52,2023-2-13T06:33:12Z
2023-02-13T04:33:52Z,42.805,6.029,13.3034,4.60118,2470.544,2023-2-13T06:36:15Z
2023-02-13T04:36:55Z,42.805,6.029,13.3037,4.60121,2470.53,2023-2-13T06:39:18Z
2023-02-13T04:39:58Z,42.805,6.029,13.3036,4.60125,2470.553,2023-2-13T06:42:21Z
2023-02-13T04:43:01Z,42.805,6.029,13.3039,4.60144,2470.53,2023-2-13T06:45:24Z
2023-02-13T04:46:04Z,42.805,6.029,13.3046,4.60155,2470.507,2023-2-13T06:48:27Z
2023-02-13T04:49:07Z,42.805,6.029,13.3026,4.60105,2470.567,2023-2-13T06:51:30Z
2023-02-13T04:52:11Z,42.805,6.029,13.3034,4.60119,2470.553,2023-2-13T06:54:33Z
2023-02-13T04:55:14Z,42.805,6.029,13.3025,4.60132,2470.507,2023-2-13T06:57:36Z
2023-02-13T04:58:17Z,42.805,6.029,13.3034,4.60122,2470.553,2023-2-13T07:00:39Z
2023-02-13T05:01:20Z,42.805,6.029,13.3034,4.60158,2470.53,2023-2-13T07:03:42Z
2023-02-13T05:04:23Z,42.805,6.029,13.3037,4.60114,2470.53,2023-2-13T07:06:46Z
2023-02-13T05:07:26Z,42.805,6.029,13.3033,4.60135,2470.52,2023-2-13T07:09:49Z
2023-02-13T05:10:29Z,42.805,6.029,13.3046,4.60121,2470.53,2023-2-13T07:12:52Z
2023-02-13T05:13:32Z,42.805,6.029,13.3038,4.60116,2470.553,2023-2-13T07:15:55Z
2023-02-13T05:16:35Z,42.805,6.029,13.3036,4.60129,2470.507,2023-2-13T07:18:58Z
2023-02-13T05:19:38Z,42.805,6.029,13.3035,4.60121,2470.507,2023-2-13T07:22:01Z
2023-02-13T05:22:41Z,42.805,6.029,13.3034,4.60112,2470.544,2023-2-13T07:25:04Z
2023-02-13T05:25:44Z,42.805,6.029,13.3034,4.60109,2470.544,2023-2-13T07:28:07Z
2023-02-13T05:28:47Z,42.805,6.029,13.3031,4.60114,2470.53,2023-2-13T07:31:10Z
2023-02-13T05:31:51Z,42.805,6.029,13.3037,4.60114,2470.53,2023-2-13T07:34:13Z
2023-02-13T05:34:54Z,42.805,6.029,13.3031,4.60114,2470.553,2023-2-13T07:37:16Z
2023-02-13T05:37:57Z,42.805,6.029,13.3035,4.60120,2470.53,2023-2-13T07:40:19Z
2023-02-13T05:41:00Z,42.805,6.029,13.3027,4.60116,2470.507,2023-2-13T07:43:23Z
2023-02-13T05:44:03Z,42.805,6.029,13.3027,4.60117,2470.53,2023-2-13T07:46:26Z
2023-02-13T05:47:06Z,42.805,6.029,13.3026,4.60107,2470.567,2023-2-13T07:49:29Z
2023-02-13T05:50:09Z,42.805,6.029,13.3029,4.60108,2470.553,2023-2-13T07:52:32Z
2023-02-13T05:53:12Z,42.805,6.029,13.3034,4.60107,2470.52,2023-2-13T07:55:35Z
2023-02-13T05:56:15Z,42.805,6.029,13.3031,4.60128,2470.52,2023-2-13T07:58:38Z
2023-02-13T05:59:18Z,42.805,6.029,13.3031,4.60102,2470.544,2023-2-13T08:01:41Z
2023-02-13T06:02:21Z,42.805,6.029,13.3027,4.60111,2470.53,2023-2-13T08:04:44Z
2023-02-13T06:05:24Z,42.805,6.029,13.3029,4.60116,2470.52,2023-2-13T08:07:47Z
2023-02-13T06:08:28Z,42.805,6.029,13.3034,4.60103,2470.483,2023-2-13T08:10:50Z
2023-02-13T06:11:31Z,42.805,6.029,13.3034,4.60122,2470.516,2023-2-13T08:13:53Z
2023-02-13T06:14:34Z,42.805,6.029,13.3031,4.60109,2470.553,2023-2-13T08:16:56Z
2023-02-13T06:17:37Z,42.805,6.029,13.3030,4.60112,2470.507,2023-2-13T08:19:59Z
2023-02-13T06:20:40Z,42.805,6.029,13.3029,4.60110,2470.507,2023-2-13T08:23:03Z
2023-02-13T06:23:43Z,42.805,6.029,13.3037,4.60117,2470.507,2023-2-13T08:26:06Z
2023-02-13T06:26:46Z,42.805,6.029,13.3041,4.60125,2470.553,2023-2-13T08:29:09Z
2023-02-13T06:29:49Z,42.805,6.029,13.3046,4.60114,2470.52,2023-2-13T08:32:12Z
2023-02-13T06:32:52Z,42.805,6.029,13.3036,4.60125,2470.53,2023-2-13T08:35:15Z
2023-02-13T06:35:55Z,42.805,6.029,13.3040,4.60108,2470.53,2023-2-13T08:38:18Z
2023-02-13T06:38:58Z,42.805,6.029,13.3038,4.60119,2470.53,2023-2-13T08:41:21Z
2023-02-13T06:42:01Z,42.805,6.029,13.3036,4.60121,2470.567,2023-2-13T08:44:24Z
2023-02-13T06:45:04Z,42.805,6.029,13.3040,4.60135,2470.553,2023-2-13T08:47:27Z
2023-02-13T06:48:08Z,42.805,6.029,13.3034,4.60114,2470.553,2023-2-13T08:50:30Z
2023-02-13T06:51:11Z,42.805,6.029,13.3029,4.60097,2470.553,2023-2-13T08:53:33Z
2023-02-13T06:54:14Z,42.805,6.029,13.3028,4.60092,2470.53,2023-2-13T08:56:36Z
2023-02-13T06:57:17Z,42.805,6.029,13.3031,4.60104,2470.553,2023-2-13T08:59:40Z
2023-02-13T07:00:20Z,42.805,6.029,13.3049,4.60121,2470.553,2023-2-13T09:02:43Z
2023-02-13T07:03:23Z,42.805,6.029,13.3033,4.60122,2470.53,2023-2-13T09:05:46Z
2023-02-13T07:06:26Z,42.805,6.029,13.3035,4.60115,2470.53,2023-2-13T09:08:49Z
2023-02-13T07:09:29Z,42.805,6.029,13.3039,4.60114,2470.53,2023-2-13T09:11:52Z
2023-02-13T07:12:32Z,42.805,6.029,13.3040,4.60096,2470.544,2023-2-13T09:14:55Z
2023-02-13T07:15:35Z,42.805,6.029,13.3045,4.60131,2470.53,2023-2-13T09:17:58Z
2023-02-13T07:18:38Z,42.805,6.029,13.3040,4.60129,2470.567,2023-2-13T09:21:01Z
2023-02-13T07:21:41Z,42.805,6.029,13.3051,4.60144,2470.553,2023-2-13T09:24:04Z
2023-02-13T07:24:44Z,42.805,6.029,13.3046,4.60131,2470.553,2023-2-13T09:27:07Z
2023-02-13T07:27:48Z,42.805,6.029,13.3056,4.60127,2470.553,2023-2-13T09:30:10Z
2023-02-13T07:30:51Z,42.805,6.029,13.3043,4.60138,2470.544,2023-2-13T09:33:13Z
2023-02-13T07:33:54Z,42.805,6.029,13.3036,4.60134,2470.53,2023-2-13T09:36:17Z
2023-02-13T07:36:57Z,42.805,6.029,13.3026,4.60108,2470.53,2023-2-13T09:39:20Z
2023-02-13T07:40:00Z,42.805,6.029,13.3046,4.60141,2470.553,2023-2-13T09:42:23Z
2023-02-13T07:43:03Z,42.805,6.029,13.3034,4.60125,2470.6,2023-2-13T09:45:26Z
2023-02-13T07:46:06Z,42.805,6.029,13.3029,4.60109,2470.567,2023-2-13T09:48:29Z
2023-02-13T07:49:09Z,42.805,6.029,13.3032,4.60129,2470.591,2023-2-13T09:51:32Z
2023-02-13T07:52:12Z,42.805,6.029,13.3034,4.60126,2470.553,2023-2-13T09:54:35Z
2023-02-13T07:55:15Z,42.805,6.029,13.3026,4.60106,2470.591,2023-2-13T09:57:38Z
2023-02-13T07:58:18Z,42.805,6.029,13.3028,4.60128,2470.577,2023-2-13T10:00:41Z
2023-02-13T08:01:21Z,42.805,6.029,13.3043,4.60130,2470.53,2023-2-13T10:03:44Z
2023-02-13T08:04:25Z,42.805,6.029,13.3037,4.60125,2470.567,2023-2-13T10:06:47Z
2023-02-13T08:07:28Z,42.805,6.029,13.3048,4.60129,2470.591,2023-2-13T10:09:50Z
2023-02-13T08:10:31Z,42.805,6.029,13.3053,4.60132,2470.577,2023-2-13T10:12:53Z
2023-02-13T08:13:34Z,42.805,6.029,13.3031,4.60112,2470.591,2023-2-13T10:15:57Z
2023-02-13T08:16:37Z,42.805,6.029,13.3043,4.60130,2470.577,2023-2-13T10:19:00Z
2023-02-13T08:19:40Z,42.805,6.029,13.3034,4.60119,2470.577,2023-2-13T10:22:03Z
2023-02-13T08:22:43Z,42.805,6.029,13.3045,4.60126,2470.567,2023-2-13T10:25:06Z
2023-02-13T08:25:46Z,42.805,6.029,13.3060,4.60115,2470.6,2023-2-13T10:28:09Z
2023-02-13T08:28:49Z,42.805,6.029,13.3035,4.60126,2470.6,2023-2-13T10:31:12Z
2023-02-13T08:31:52Z,42.805,6.029,13.3032,4.60121,2470.577,2023-2-13T10:34:15Z
2023-02-13T08:34:55Z,42.805,6.029,13.3046,4.60122,2470.577,2023-2-13T10:37:18Z
2023-02-13T08:37:58Z,42.805,6.029,13.3042,4.60147,2470.6,2023-2-13T10:40:21Z
2023-02-13T08:41:02Z,42.805,6.029,13.3043,4.60121,2470.577,2023-2-13T10:43:24Z
2023-02-13T08:44:05Z,42.805,6.029,13.3039,4.60127,2470.6,2023-2-13T10:46:27Z
2023-02-13T08:47:08Z,42.805,6.029,13.3037,4.60096,2470.6,2023-2-13T10:49:31Z
2023-02-13T08:50:11Z,42.805,6.029,13.3034,4.60114,2470.577,2023-2-13T10:52:34Z
2023-02-13T08:53:14Z,42.805,6.029,13.3042,4.60110,2470.614,2023-2-13T10:55:37Z
2023-02-13T08:56:17Z,42.805,6.029,13.3036,4.60116,2470.614,2023-2-13T10:58:40Z
2023-02-13T08:59:20Z,42.805,6.029,13.3046,4.60115,2470.624,2023-2-13T11:01:43Z
2023-02-13T09:02:23Z,42.805,6.029,13.3039,4.60145,2470.624,2023-2-13T11:04:46Z
2023-02-13T09:05:26Z,42.805,6.029,13.3050,4.60140,2470.6,2023-2-13T11:07:49Z
2023-02-13T09:08:29Z,42.805,6.029,13.3053,4.60128,2470.614,2023-2-13T11:10:52Z
2023-02-13T09:11:32Z,42.805,6.029,13.3052,4.60124,2470.6,2023-2-13T11:13:55Z
2023-02-13T09:14:35Z,42.805,6.029,13.3067,4.60128,2470.577,2023-2-13T11:16:58Z
2023-02-13T09:17:39Z,42.805,6.029,13.3059,4.60150,2470.614,2023-2-13T11:20:01Z
2023-02-13T09:20:42Z,42.805,6.029,13.3054,4.60129,2470.614,2023-2-13T11:23:04Z
2023-02-13T09:23:45Z,42.805,6.029,13.3056,4.60155,2470.591,2023-2-13T11:26:08Z
2023-02-13T09:26:48Z,42.805,6.029,13.3067,4.60131,2470.614,2023-2-13T11:29:11Z
2023-02-13T09:29:51Z,42.805,6.029,13.3046,4.60122,2470.591,2023-2-13T11:32:14Z
2023-02-13T09:32:54Z,42.805,6.029,13.3034,4.60112,2470.624,2023-2-13T11:35:17Z
2023-02-13T09:35:57Z,42.805,6.029,13.3027,4.60105,2470.637,2023-2-13T11:38:20Z
2023-02-13T09:39:00Z,42.805,6.029,13.3042,4.60118,2470.624,2023-2-13T11:41:23Z
2023-02-13T09:42:03Z,42.805,6.029,13.3054,4.60140,2470.637,2023-2-13T11:44:26Z
2023-02-13T09:45:06Z,42.805,6.029,13.3048,4.60139,2470.614,2023-2-13T11:47:29Z
2023-02-13T09:48:09Z,42.805,6.029,13.3051,4.60131,2470.637,2023-2-13T11:50:32Z
2023-02-13T09:51:13Z,42.805,6.029,13.3058,4.60120,2470.624,2023-2-13T11:53:35Z
2023-02-13T09:54:16Z,42.805,6.029,13.3041,4.60136,2470.6,2023-2-13T11:56:38Z
2023-02-13T09:57:19Z,42.805,6.029,13.3044,4.60145,2470.614,2023-2-13T11:59:42Z
2023-02-13T10:00:22Z,42.805,6.029,13.3058,4.60155,2470.614,2023-2-13T12:02:45Z
2023-02-13T10:03:25Z,42.805,6.029,13.3043,4.60135,2470.646,2023-2-13T12:05:48Z
2023-02-13T10:06:28Z,42.805,6.029,13.3070,4.60160,2470.624,2023-2-13T12:08:51Z
2023-02-13T10:09:31Z,42.805,6.029,13.3051,4.60160,2470.614,2023-2-13T12:11:54Z
2023-02-13T10:12:34Z,42.805,6.029,13.3057,4.60125,2470.624,2023-2-13T12:14:57Z
2023-02-13T10:15:37Z,42.805,6.029,13.3078,4.60135,2470.646,2023-2-13T12:18:00Z
2023-02-13T10:18:40Z,42.805,6.029,13.3051,4.60162,2470.646,2023-2-13T12:21:03Z
2023-02-13T10:21:43Z,42.805,6.029,13.3062,4.60158,2470.646,2023-2-13T12:24:06Z
2023-02-13T10:24:46Z,42.805,6.029,13.3071,4.60145,2470.614,2023-2-13T12:27:09Z
2023-02-13T10:27:50Z,42.805,6.029,13.3067,4.60137,2470.6,2023-2-13T12:30:12Z
2023-02-13T10:30:53Z,42.805,6.029,13.3049,4.60135,2470.637,2023-2-13T12:33:15Z
2023-02-13T10:33:56Z,42.805,6.029,13.3085,4.60124,2470.661,2023-2-13T12:36:19Z
2023-02-13T10:36:59Z,42.805,6.029,13.3053,4.60164,2470.637,2023-2-13T12:39:22Z
2023-02-13T10:40:02Z,42.805,6.029,13.3066,4.60163,2470.614,2023-2-13T12:42:25Z
2023-02-13T10:43:05Z,42.805,6.029,13.3066,4.60171,2470.591,2023-2-13T12:45:28Z
2023-02-13T10:46:08Z,42.805,6.029,13.3057,4.60155,2470.637,2023-2-13T12:48:31Z
2023-02-13T10:49:11Z,42.805,6.029,13.3087,4.60200,2470.646,2023-2-13T12:51:34Z
2023-02-13T10:52:14Z,42.805,6.029,13.3084,4.60184,2470.637,2023-2-13T12:54:37Z
2023-02-13T10:55:17Z,42.805,6.029,13.3099,4.60167,2470.614,2023-2-13T12:57:40Z
2023-02-13T10:58:20Z,42.805,6.029,13.3043,4.60144,2470.614,2023-2-13T13:00:43Z
2023-02-13T11:01:23Z,42.805,6.029,13.3085,4.60166,2470.646,2023-2-13T13:03:46Z
2023-02-13T11:04:27Z,42.805,6.029,13.3048,4.60178,2470.6,2023-2-13T13:06:49Z
2023-02-13T11:07:30Z,42.805,6.029,13.3074,4.60200,2470.661,2023-2-13T13:09:52Z
2023-02-13T11:10:33Z,42.805,6.029,13.3063,4.60122,2470.637,2023-2-13T13:12:56Z
2023-02-13T11:13:36Z,42.805,6.029,13.3084,4.60162,2470.6,2023-2-13T13:15:59Z
2023-02-13T11:16:39Z,42.805,6.029,13.3051,4.60165,2470.661,2023-2-13T13:19:02Z
2023-02-13T11:19:42Z,42.805,6.029,13.3063,4.60182,2470.624,2023-2-13T13:22:05Z
2023-02-13T11:22:45Z,42.805,6.029,13.3076,4.60165,2470.6,2023-2-13T13:25:08Z
2023-02-13T11:25:48Z,42.805,6.029,13.3058,4.60161,2470.637,2023-2-13T13:28:11Z
2023-02-13T11:28:51Z,42.805,6.029,13.3074,4.60136,2470.637,2023-2-13T13:31:14Z
2023-02-13T11:31:54Z,42.805,6.029,13.3086,4.60144,2470.624,2023-2-13T13:34:17Z
2023-02-13T11:34:57Z,42.805,6.029,13.3057,4.60137,2470.6,2023-2-13T13:37:20Z
2023-02-13T11:38:00Z,42.805,6.029,13.3063,4.60148,2470.624,2023-2-13T13:40:23Z
2023-02-13T11:41:04Z,42.805,6.029,13.3081,4.60125,2470.624,2023-2-13T13:43:26Z
2023-02-13T11:44:07Z,42.805,6.029,13.3099,4.60183,2470.624,2023-2-13T13:46:29Z
2023-02-13T11:47:10Z,42.805,6.029,13.3079,4.60146,2470.624,2023-2-13T13:49:33Z
2023-02-13T11:50:13Z,42.805,6.029,13.3076,4.60140,2470.6,2023-2-13T13:52:36Z
2023-02-13T11:53:16Z,42.805,6.029,13.3048,4.60131,2470.614,2023-2-13T13:55:39Z
2023-02-13T11:56:19Z,42.805,6.029,13.3067,4.60133,2470.637,2023-2-13T13:58:42Z
2023-02-13T11:59:22Z,42.805,6.029,13.3075,4.60108,2470.624,2023-2-13T14:01:45Z
2023-02-13T12:02:25Z,42.805,6.029,13.3084,4.60104,2470.637,2023-2-13T14:04:48Z
2023-02-13T12:05:28Z,42.805,6.029,13.3094,4.60131,2470.624,2023-2-13T14:07:51Z
2023-02-13T12:08:31Z,42.805,6.029,13.3082,4.60120,2470.637,2023-2-13T14:10:54Z
2023-02-13T12:11:34Z,42.805,6.029,13.3069,4.60125,2470.6,2023-2-13T14:13:57Z
2023-02-13T12:14:37Z,42.805,6.029,13.3089,4.60140,2470.624,2023-2-13T14:17:00Z
2023-02-13T12:17:41Z,42.805,6.029,13.3056,4.60115,2470.614,2023-2-13T14:20:03Z
2023-02-13T12:20:44Z,42.805,6.029,13.3043,4.60109,2470.637,2023-2-13T14:23:07Z
2023-02-13T12:23:47Z,42.805,6.029,13.3092,4.60125,2470.624,2023-2-13T14:26:10Z
2023-02-13T12:26:50Z,42.805,6.029,13.3063,4.60132,2470.661,2023-2-13T14:29:13Z
2023-02-13T12:29:53Z,42.805,6.029,13.3058,4.60122,2470.646,2023-2-13T14:32:16Z
2023-02-13T12:32:56Z,42.805,6.029,13.3076,4.60116,2470.637,2023-2-13T14:35:19Z
2023-02-13T12:35:59Z,42.805,6.029,13.3052,4.60099,2470.614,2023-2-13T14:38:22Z
2023-02-13T12:39:02Z,42.805,6.029,13.3057,4.60125,2470.661,2023-2-13T14:41:25Z
2023-02-13T12:42:05Z,42.805,6.029,13.3050,4.60129,2470.646,2023-2-13T14:44:28Z
2023-02-13T12:45:08Z,42.805,6.029,13.3052,4.60175,2470.637,2023-2-13T14:47:31Z
2023-02-13T12:48:11Z,42.805,6.029,13.3101,4.60141,2470.624,2023-2-13T14:50:34Z
2023-02-13T12:51:15Z,42.805,6.029,13.3102,4.60096,2470.6,2023-2-13T14:53:37Z
2023-02-13T12:54:18Z,42.805,6.029,13.3044,4.60097,2470.6,2023-2-13T14:56:40Z
2023-02-13T12:57:21Z,42.805,6.029,13.3057,4.60102,2470.637,2023-2-13T14:59:44Z
2023-02-13T13:00:24Z,42.805,6.029,13.3071,4.60110,2470.624,2023-2-13T15:02:47Z
2023-02-13T13:03:27Z,42.805,6.029,13.3085,4.60102,2470.614,2023-2-13T15:05:50Z
2023-02-13T13:06:30Z,42.805,6.029,13.3079,4.60150,2470.637,2023-2-13T15:08:53Z
2023-02-13T13:09:33Z,42.805,6.029,13.3060,4.60148,2470.646,2023-2-13T15:11:56Z
2023-02-13T13:12:36Z,42.805,6.029,13.3076,4.60169,2470.661,2023-2-13T15:14:59Z
2023-02-13T13:15:39Z,42.805,6.029,13.3086,4.60109,2470.637,2023-2-13T15:18:02Z
2023-02-13T13:18:42Z,42.805,6.029,13.3057,4.60113,2470.637,2023-2-13T15:21:05Z
2023-02-13T13:21:45Z,42.805,6.029,13.3047,4.60097,2470.6,2023-2-13T15:24:08Z
2023-02-13T13:24:48Z,42.805,6.029,13.3038,4.60138,2470.6,2023-2-13T15:27:11Z
2023-02-13T13:27:52Z,42.805,6.029,13.3068,4.60125,2470.624,2023-2-13T15:30:14Z
2023-02-13T13:30:55Z,42.805,6.029,13.3061,4.60140,2470.6,2023-2-13T15:33:18Z
2023-02-13T13:33:58Z,42.805,6.029,13.3073,4.60144,2470.614,2023-2-13T15:36:21Z
2023-02-13T13:37:01Z,42.805,6.029,13.3082,4.60105,2470.577,2023-2-13T15:39:24Z
2023-02-13T13:40:04Z,42.805,6.029,13.3092,4.60173,2470.624,2023-2-13T15:42:27Z
2023-02-13T13:43:07Z,42.805,6.029,13.3103,4.60142,2470.637,2023-2-13T15:45:30Z
2023-02-13T13:46:10Z,42.805,6.029,13.3089,4.60162,2470.6,2023-2-13T15:48:33Z
2023-02-13T13:49:13Z,42.805,6.029,13.3059,4.60123,2470.577,2023-2-13T15:51:36Z
2023-02-13T13:52:16Z,42.805,6.029,13.3094,4.60129,2470.624,2023-2-13T15:54:39Z
2023-02-13T13:55:19Z,42.805,6.029,13.3107,4.60132,2470.637,2023-2-13T15:57:42Z
2023-02-13T13:58:22Z,42.805,6.029,13.3067,4.60128,2470.591,2023-2-13T16:00:45Z
2023-02-13T14:01:25Z,42.805,6.029,13.3039,4.60155,2470.614,2023-2-13T16:03:48Z
2023-02-13T14:04:29Z,42.805,6.029,13.3051,4.60147,2470.6,2023-2-13T16:06:51Z
2023-02-13T14:07:32Z,42.805,6.029,13.3053,4.60132,2470.614,2023-2-13T16:09:55Z
2023-02-13T14:10:35Z,42.805,6.029,13.3082,4.60154,2470.577,2023-2-13T16:12:58Z
2023-02-13T14:13:38Z,42.805,6.029,13.3114,4.60127,2470.6,2023-2-13T16:16:01Z
2023-02-13T14:16:41Z,42.805,6.029,13.3110,4.60129,2470.6,2023-2-13T16:19:04Z
2023-02-13T14:19:44Z,42.805,6.029,13.3084,4.60129,2470.577,2023-2-13T16:22:07Z
2023-02-13T14:22:47Z,42.805,6.029,13.3054,4.60169,2470.577,2023-2-13T16:25:10Z
2023-02-13T14:25:50Z,42.805,6.029,13.3070,4.60151,2470.577,2023-2-13T16:28:13Z
2023-02-13T14:28:53Z,42.805,6.029,13.3076,4.60143,2470.614,2023-2-13T16:31:16Z
2023-02-13T14:31:56Z,42.805,6.029,13.3069,4.60160,2470.637,2023-2-13T16:34:19Z
2023-02-13T14:34:59Z,42.805,6.029,13.3057,4.60144,2470.591,2023-2-13T16:37:22Z
2023-02-13T14:38:02Z,42.805,6.029,13.3058,4.60129,2470.614,2023-2-13T16:40:25Z
2023-02-13T14:41:06Z,42.805,6.029,13.3039,4.60140,2470.553,2023-2-13T16:43:28Z
2023-02-13T14:44:09Z,42.805,6.029,13.3036,4.60178,2470.577,2023-2-13T16:46:32Z
2023-02-13T14:47:12Z,42.805,6.029,13.3045,4.60147,2470.591,2023-2-13T16:49:35Z
2023-02-13T14:50:15Z,42.805,6.029,13.3073,4.60131,2470.591,2023-2-13T16:52:38Z
2023-02-13T14:53:18Z,42.805,6.029,13.3043,4.60149,2470.567,2023-2-13T16:55:41Z
2023-02-13T14:56:21Z,42.805,6.029,13.3043,4.60175,2470.591,2023-2-13T16:58:44Z
2023-02-13T14:59:24Z,42.805,6.029,13.3057,4.60140,2470.567,2023-2-13T17:01:47Z
2023-02-13T15:02:27Z,42.805,6.029,13.3045,4.60119,2470.567,2023-2-13T17:04:50Z
2023-02-13T15:05:30Z,42.805,6.029,13.3047,4.60160,2470.577,2023-2-13T17:07:53Z
2023-02-13T15:08:33Z,42.805,6.029,13.3068,4.60133,2470.567,2023-2-13T17:10:56Z
2023-02-13T15:11:36Z,42.805,6.029,13.3064,4.60117,2470.614,2023-2-13T17:13:59Z
2023-02-13T15:14:40Z,42.805,6.029,13.3061,4.60158,2470.544,2023-2-13T17:17:02Z